Regional Weather Roundup
Issued by NWS

Current Version | Previous Version | Text Only | Print | Product List | Glossary On
Versions: 1 2 3 4 5 6 7 8 9 10 11 12 13 14 15 16 17 18 19 20 21 22 23 24 25 26 27 28 29 30 31 32 33 34 35 36 37 38 39 40 41 42 43 44 45 46 47 48 49 50
000
ASUS45 KREV 291010
RWRNV
NEVADA REGIONAL WEATHER ROUNDUP
NATIONAL WEATHER SERVICE RENO NV
300 AM PDT SUN MAR 29 2015

NOTE: "FAIR" INDICATES FEW OR NO CLOUDS BELOW 12,000 FEET WITH NO
SIGNIFICANT WEATHER AND/OR OBSTRUCTIONS TO VISIBILITY.

NVZ001-003-004-291100-
WESTERN NEVADA

CITY           SKY/WX    TMP DP  RH WIND       PRES   REMARKS
RENO           PTCLDY    44  19  36 SW3       30.27F
CARSON CITY    FAIR      37   9  30 N5        30.28S
MINDEN         FAIR      32   9  37 E7        30.28
SLIDE MTN        N/A     37   9  30 E9          N/A
PYRAMID LAKE     N/A     54 N/A N/A SW5         N/A
FALLON         PTCLDY    38   5  25 W3        30.25R
LOVELOCK       PTCLDY    46  11  24 N8        30.25F
HAWTHORNE      CLEAR     48  10  21 SW6       30.23F
$$

NVZ002-CAZ072-073-291100-
NORTHERN AND CENTRAL SIERRA

CITY           SKY/WX    TMP DP  RH WIND       PRES   REMARKS
S. LAKE TAHOE  CLEAR     32  23  69 S3        30.30S
TRUCKEE        CLEAR     30  23  74 CALM      30.31F
SQUAW VLY 8000   N/A     37   9  30 W1          N/A
BLUE CANYON    CLEAR     56   9  15 NE8       30.23F
BRIDGEPORT     FAIR      30  16  56 CALM      30.31F
$$

NVZ030-031-036-291100-
NORTHERN NEVADA

CITY           SKY/WX    TMP DP  RH WIND       PRES   REMARKS
ELKO           MOCLDY    26  14  60 CALM      30.32F
WINNEMUCCA     PTCLDY    40  14  34 NE7       30.29F
WENDOVER       PTCLDY    46  23  39 NE8       30.31R
$$

NVZ035-037-291100-
CENTRAL NEVADA

CITY           SKY/WX    TMP DP  RH WIND       PRES   REMARKS
ELY            PTCLDY    33  12  41 S8        30.33S
EUREKA           N/A     30  11  45 SE3       30.31S
$$

NVZ013-014-291100-
SOUTH CENTRAL NEVADA

CITY           SKY/WX    TMP DP  RH WIND       PRES   REMARKS
TONOPAH        MOCLDY    49  11  21 N14       30.24F
$$

NVZ017-020-022-291100-
SOUTHERN NEVADA

CITY           SKY/WX    TMP DP  RH WIND       PRES   REMARKS
LAS VEGAS      CLEAR     67  21  17 SW6       29.98F
N. LAS VEGAS   CLEAR     66  18  15 N6        30.01F
NELLIS AFB     NOT AVBL
HENDERSON      CLEAR     63  19  18 SW6       30.05F
MERCURY        CLEAR     55  14  19 E3        30.09F
$$


USA.gov is the U.S. government's official web portal to all federal, state and local government web resources and services.